CZ-6A DEB, 60213

Orbit data source: Space-Track

CZ-6A DEB, 60213 is space debris in SSO originally from a launch on Thu, 04 Jul 2024 UTC launched from the Taiyaun Space Center, China (TSC). Debris objects in space refer to the collection of defunct objects orbiting the Earth. Examples of debris include non-operational satellites, rocket bodies, and fragments generated from explosions, collisions, or faulty payload assembly.

Loading next visibility...
Identifier
60213, 2024-126C
Orbit
SSO
Country
Flag of CNCN / PRC
Related business
Manufacturer
SAST
Mission
Spacecraft
Bus & Motor
Unknown
Mass
~50 kg wet, ~50 kg dry
Launch date (UTC)
2024-07-04 (2 years ago)
Launch vehicle
Unknown
Launch site
Taiyaun Space Center, China (TSC)
Object type
Payload
Rocket body
Debris
Shape & HBR
Cone, 0.3 m
Radar Cross Section
0.159 m², Large (>1 m²)

Expand to show TLE details & history
Last TLE update: 13 hours ago

TLE from 13 hours ago
0 CZ-6A DEB
1 60213U 24126C   26124.77509411  .00013672  00000-0  84595-3 0  9999
2 60213  97.8207 145.0072 0006936  80.1055 280.0956 15.09921540100196
Epoch: 2026-05-04T18:36Z
TLE epoch observation values (Epoch: 2026-05-04T18:36:08.131Z)
Latitude
-0.00002°
Longitude
3.31387°
Altitude
538.666 km
Speed
7.594 km/s
True Right ascension
09h 40m 01s
True Declination
0° 00' 00"
Sunlit
Object was in daylight at epoch
Visualization orbit readout
Latitude
Unknown
Longitude
Unknown
Altitude
Unknown
Speed
Unknown
Apparent Right ascension
Unknown
Apparent Declination
Unknown
Sunlit
N/A
Visualization observer readout
Local Sidereal Time
15:15:05
Azimuth
Unknown
Elevation
Unknown
Doppler factor
Unknown
Orbital elements
Apogee altitude
538.231 km
Perigee altitude
528.643 km
Semi-major axis
6,911.574 km
Eccentricity
0.00069
Inclination
97.8207°
RAAN
145.0072°
Arg. of periapsis
80.1055°
True anomaly
280.01734°
Mean anomaly
280.0956°
Eccentric anomaly
280.05647°
Mean motion
3.77727 °/min
Orbital period
95.31 mins
BSTAR
0.00084595
Loading maneuver chart data...
Computing Atmospheric mass density...
Loading historical data...
Loading historical data...
Loading historical data...
Loading historical data...
Loading historical data...
Loading historical data...
Loading historical data...
Other satellites on launch #126 in the year 2024 (2024-07-04 UTC)

Documentation

Showing up to 5 results
|